Location: Avon
(37.7514°N, 90.2235°W)
Time: 18:38:30
(UTC+00:00)

A-11 Canister half - Pass Details

Date: 18 November 2025
Orbit: 1526 x 1681 km, 47.3° (Epoch: 06 December)

Event Time Altitude Azimuth Distance (km) Brightness Sun altitude
Rises 00:48:11 0° 261° (W) 4,896 13.1 -23.7°
Reaches altitude 10° 00:51:28 10° 265° (W) 3,894 12.2 -24.3°
Maximum altitude 01:01:13 57° 343° (NNW) 1,861 9.4 -26.3°
Enters shadow 01:05:25 35° 43° (NE) 2,364 9.6 -27.1°
